This demonstration page uses our WeatherBlox Daily Observations layout. Learn more.

Left ArrowRight Arrow

39.12711, -84.51439

Hourly Observations for May 23, 2018

Temp ( °F °C ) Dew Point ( °F °C ) Humidity (%) Winds ( mph kmh ) Pressure ( in mb ) Visibility ( mi km ) Precip ( " mm )
12:53 am 00:53 Clear 65 18.3 65 18.3 100 100 Calm 30.02 1017 10 16 0.00 0.00
1:53 am 01:53 Clear 63 17.2 63 17.2 100 100 Calm 30.04 1017 8 13 0.00 0.00
2:53 am 02:53 Clear 63 17.2 63 17.2 100 100 Calm 30.05 1018 9 14 0.00 0.00
3:02 am 03:02 Clear with Mist and Fog 62 16.7 62 16.7 100 100 Calm 30.03 1017 2 3 0.00 0.00
3:11 am 03:11 Clear with Mist and Fog 62 16.7 62 16.7 100 100 Calm 30.03 1017 5 8 0.00 0.00
3:26 am 03:26 Clear with Mist and Fog 62 16.7 62 16.7 100 100 Calm 30.03 1017 2 3 0.00 0.00
3:36 am 03:36 Clear with Mist and Fog 62 16.7 62 16.7 100 100 Calm 30.03 1017 3 5 0.00 0.00
3:53 am 03:53 Clear with Mist and Fog 61 16.1 61 16.1 100 100 Calm 30.06 1018 5 8 0.00 0.00
4:28 am 04:28 Clear with Mist and Fog 61 16.1 61 16.1 100 100 Calm 30.06 1018 2 2 0.00 0.00
4:37 am 04:37 Clear with Mist and Fog 60 15.6 60 15.6 100 100 Calm 30.06 1018 1 1 0.00 0.00
4:41 am 04:41 Clear with Mist and Fog 60 15.6 60 15.6 100 100 Calm 30.06 1018 2 3 0.00 0.00
4:53 am 04:53 Clear with Mist and Fog 60 15.6 60 15.6 100 100 Calm 30.06 1018 2 3 0.00 0.00
5:02 am 05:02 Clear with Mist and Fog 60 15.6 60 15.6 100 100 Calm 30.06 1018 3 5 0.00 0.00
5:15 am 05:15 Clear with Mist and Fog 60 15.6 60 15.6 100 100 Calm 30.06 1018 3 4 0.00 0.00
5:24 am 05:24 Clear with Mist and Fog 60 15.6 60 15.6 100 100 Calm 30.06 1018 3 5 0.00 0.00
5:29 am 05:29 Clear with Mist and Fog 60 15.6 60 15.6 100 100 Calm 30.06 1018 2 2 0.00 0.00
5:41 am 05:41 Clear with Mist and Fog 60 15.6 60 15.6 100 100 Calm 30.06 1018 1 1 0.00 0.00
5:48 am 05:48 Clear with Mist and Fog 61 16 61 16 100 100 Calm 30.06 1018 2 3 0.00 0.00
5:50 am 05:50 Clear with Mist and Fog 61 16 61 16 100 100 Calm 30.06 1018 3 5 0.00 0.00
5:53 am 05:53 Clear with Mist and Fog 60 15.6 60 15.6 100 100 Calm 30.08 1019 3 5 0.00 0.00
6:53 am 06:53 Sunny 60 15.6 60 15.6 100 100 Calm 30.10 1019 10 16 0.00 0.00
7:53 am 07:53 Sunny 64 17.8 63 17.2 96 96 Calm 30.11 1020 10 16 0.00 0.00
8:53 am 08:53 Mostly Sunny 68 20 63 17.2 84 84 NE 7 11 30.12 1020 10 16 0.00 0.00
9:53 am 09:53 Partly Cloudy 71 21.7 64 17.8 79 79 ENE 6 9 30.13 1020 10 16 0.00 0.00
10:53 am 10:53 Mostly Cloudy 72 22.2 63 17.2 73 73 VRB 5 7 30.14 1021 10 16 0.00 0.00
11:53 am 11:53 Partly Cloudy 75 23.9 63 17.2 66 66 VRB 5 7 30.14 1021 10 16 0.00 0.00
12:53 pm 12:53 Partly Cloudy 77 25 63 17.2 62 62 ENE 6 9 30.15 1021 10 16 0.00 0.00
1:53 pm 13:53 Partly Cloudy 78 25.6 62 16.7 58 58 ENE 9 15 30.14 1021 10 16 0.00 0.00
2:53 pm 14:53 Sunny 78 25.6 60 15.6 54 54 ENE 5 7 30.13 1020 10 16 0.00 0.00
3:53 pm 15:53 Sunny 79 26.1 61 16.1 54 54 ENE 9 15 30.13 1020 10 16 0.00 0.00
4:53 pm 16:53 Sunny 79 26.1 59 15 50 50 ENE 7 11 30.12 1020 10 16 0.00 0.00
5:53 pm 17:53 Sunny 79 26.1 60 15.6 52 52 ENE 9 15 30.12 1020 10 16 0.00 0.00
6:53 pm 18:53 Sunny 78 25.6 58 14.4 50 50 E 12 19 30.10 1019 10 16 0.00 0.00
7:53 pm 19:53 Sunny 76 24.4 58 14.4 54 54 NE 9 15 30.11 1020 10 16 0.00 0.00
8:53 pm 20:53 Clear 70 21.1 60 15.6 71 71 Calm 30.12 1020 10 16 0.00 0.00
9:53 pm 21:53 Clear 65 18.3 62 16.7 90 90 Calm 30.14 1021 10 16 0.00 0.00
10:53 pm 22:53 Clear 63 17.2 61 16.1 93 93 NNE 3 6 30.16 1021 10 16 0.00 0.00
11:53 pm 23:53 Clear 62 16.7 60 15.6 93 93 Calm 30.17 1022 10 16 0.00 0.00

Powered by AerisWeather